TimeHST,TemperatureF,Dew PointF,Humidity,Sea Level PressureIn,VisibilityMPH,Wind Direction,Wind SpeedMPH,Gust SpeedMPH,PrecipitationIn,Events,Conditions,WindDirDegrees,DateUTC
12:58 AM,69.6,63.7,81,30.06,10.0,WNW,6.9,-,N/A,,Clear,290,2013-08-25 10:58:00
1:58 AM,68.5,63.1,83,30.05,10.0,WNW,5.8,-,N/A,,Clear,300,2013-08-25 11:58:00
2:58 AM,69.1,63.9,83,30.04,10.0,West,4.6,-,N/A,,Clear,280,2013-08-25 12:58:00
3:58 AM,69.4,64.4,84,30.03,10.0,Variable,2.3,-,N/A,,Clear,0,2013-08-25 13:58:00
4:58 AM,68.0,63.3,85,30.04,10.0,NW,3.5,-,N/A,,Clear,320,2013-08-25 14:58:00
5:58 AM,68.2,63.3,84,30.05,10.0,Variable,1.2,-,N/A,,Clear,0,2013-08-25 15:58:00
6:58 AM,69.4,63.7,82,30.06,10.0,WNW,2.3,-,N/A,,Clear,290,2013-08-25 16:58:00
7:58 AM,77.0,65.8,68,30.08,10.0,East,9.2,-,N/A,,Clear,100,2013-08-25 17:58:00
8:58 AM,79.7,64.8,60,30.08,10.0,Variable,6.9,-,N/A,,Partly Cloudy,0,2013-08-25 18:58:00
9:58 AM,81.9,63.1,53,30.09,10.0,ESE,8.1,-,N/A,,Partly Cloudy,110,2013-08-25 19:58:00
10:58 AM,82.6,63.9,53,30.09,10.0,East,16.1,20.7,N/A,,Scattered Clouds,90,2013-08-25 20:58:00
11:58 AM,83.8,62.8,49,30.07,10.0,East,20.7,25.3,N/A,,Clear,90,2013-08-25 21:58:00
12:58 PM,83.5,64.4,52,30.07,10.0,ENE,12.7,23.0,N/A,,Scattered Clouds,70,2013-08-25 22:58:00
1:26 PM,82.4,62.6,51,30.06,10.0,East,12.7,21.9,N/A,,Mostly Cloudy,90,2013-08-25 23:26:00
1:53 PM,84.2,62.6,48,30.06,10.0,East,18.4,25.3,N/A,,Partly Cloudy,100,2013-08-25 23:53:00
1:58 PM,84.4,63.3,49,30.06,10.0,East,18.4,25.3,N/A,,Partly Cloudy,80,2013-08-25 23:58:00
2:58 PM,83.8,64.6,52,30.05,10.0,ENE,12.7,-,N/A,,Partly Cloudy,70,2013-08-26 00:58:00
3:58 PM,81.9,66.0,59,30.04,10.0,East,10.4,-,N/A,,Mostly Cloudy,80,2013-08-26 01:58:00
4:58 PM,80.4,63.7,57,30.04,10.0,East,12.7,-,N/A,,Partly Cloudy,80,2013-08-26 02:58:00
5:58 PM,79.7,64.4,59,30.05,10.0,East,10.4,-,N/A,,Clear,80,2013-08-26 03:58:00
6:58 PM,77.0,64.2,65,30.06,10.0,ENE,8.1,-,N/A,,Partly Cloudy,70,2013-08-26 04:58:00
7:58 PM,75.4,63.5,66,30.08,10.0,Calm,Calm,-,N/A,,Clear,0,2013-08-26 05:58:00
8:58 PM,75.4,64.4,69,30.10,10.0,NE,1.2,-,N/A,,Mostly Cloudy,50,2013-08-26 06:58:00
9:58 PM,75.4,64.4,69,30.11,10.0,Variable,2.3,-,N/A,,Mostly Cloudy,0,2013-08-26 07:58:00
10:58 PM,75.2,64.2,69,30.11,10.0,NNE,4.6,-,N/A,,Scattered Clouds,30,2013-08-26 08:58:00
11:58 PM,75.2,64.0,68,30.11,10.0,Variable,5.8,-,N/A,,Scattered Clouds,0,2013-08-26 09:58:00